| time (UTC) | temp C | wind direction | speed KPH | gust KPH | rain 1hr cm | rain 24hr cm | rain mn cm | humidity % | barometer mb |
| 20260504183027 | 23 | 194 | 12.9 | 33.8 | 0.00 | 0.00 | 0.00 | 39 | 1002.9 |
| 20260504181508 | 22 | 227 | 14.5 | 29.0 | 0.00 | 0.00 | 0.00 | 39 | 1003.0 |
| 20260504180012 | 22 | 220 | 11.3 | 29.0 | 0.00 | 0.00 | 0.00 | 39 | 1003.2 |
| 20260504174516 | 22 | 203 | 12.9 | 25.7 | 0.00 | 0.00 | 0.00 | 43 | 1003.6 |
| 20260504173022 | 22 | 203 | 9.7 | 32.2 | 0.00 | 0.00 | 0.00 | 42 | 1003.8 |
| 20260504171524 | 21 | 235 | 11.3 | 32.2 | 0.00 | 0.00 | 0.00 | 45 | 1003.9 |
| 20260504081527 | 7 | 201 | 3.2 | 16.1 | 0.00 | 0.00 | 0.00 | 79 | 1006.6 |
| 20260504050003 | 9 | 180 | 8.0 | 17.7 | 0.00 | 0.00 | 0.00 | 71 | 1008.8 |
| 20260504044510 | 10 | 202 | 8.0 | 22.5 | 0.00 | 0.00 | 0.00 | 70 | 1008.9 |
| 20260504043012 | 9 | 215 | 4.8 | 20.9 | 0.00 | 0.00 | 0.00 | 71 | 1009.0 |
| 20260504041513 | 9 | 221 | 6.4 | 16.1 | 0.00 | 0.00 | 0.00 | 70 | 1009.1 |
| 20260504040020 | 9 | 200 | 9.7 | 24.1 | 0.00 | 0.00 | 0.00 | 70 | 1009.1 |
| 20260504034503 | 10 | 232 | 9.7 | 20.9 | 0.00 | 0.00 | 0.00 | 69 | 1009.2 |
| 20260504033006 | 10 | 227 | 8.0 | 19.3 | 0.00 | 0.00 | 0.00 | 69 | 1009.6 |
| 20260504031510 | 10 | 234 | 6.4 | 20.9 | 0.00 | 0.00 | 0.00 | 69 | 1009.6 |
| 20260504030014 | 9 | 186 | 8.0 | 19.3 | 0.00 | 0.00 | 0.00 | 70 | 1009.8 |
| 20260504024518 | 9 | 228 | 4.8 | 20.9 | 0.00 | 0.00 | 0.00 | 71 | 1009.9 |
| 20260504023004 | 9 | 229 | 6.4 | 17.7 | 0.00 | 0.00 | 0.00 | 72 | 1009.9 |
| 20260504021510 | 9 | 206 | 4.8 | 17.7 | 0.00 | 0.00 | 0.00 | 73 | 1010.1 |
| 20260504020010 | 9 | 202 | 4.8 | 14.5 | 0.00 | 0.00 | 0.00 | 73 | 1010.1 |
| 20260504014514 | 9 | 204 | 6.4 | 16.1 | 0.00 | 0.00 | 0.00 | 73 | 1010.1 |
| 20260504013025 | 9 | 211 | 4.8 | 12.9 | 0.00 | 0.00 | 0.00 | 73 | 1010.1 |
| 20260504011505 | 9 | 246 | 8.0 | 17.7 | 0.00 | 0.00 | 0.00 | 71 | 1010.2 |
| 20260504010007 | 10 | 192 | 4.8 | 14.5 | 0.00 | 0.00 | 0.00 | 70 | 1010.3 |
| 20260504004532 | 10 | 202 | 8.0 | 20.9 | 0.00 | 0.00 | 0.00 | 68 | 1010.4 |
| 20260504003018 | 10 | 211 | 6.4 | 17.7 | 0.00 | 0.00 | 0.00 | 67 | 1010.6 |
| 20260504001531 | 11 | 200 | 6.4 | 17.7 | 0.00 | 0.00 | 0.00 | 67 | 1010.7 |
| 20260504000007 | 11 | 198 | 6.4 | 19.3 | 0.00 | 0.00 | 0.00 | 66 | 1010.7 |
| 20260503234517 | 11 | 213 | 9.7 | 22.5 | 0.00 | 0.00 | 0.00 | 65 | 1010.8 |
| 20260503233015 | 11 | 217 | 8.0 | 22.5 | 0.00 | 0.00 | 0.00 | 63 | 1010.9 |
| 20260503231521 | 12 | 192 | 9.7 | 22.5 | 0.00 | 0.00 | 0.00 | 61 | 1011.0 |
| 20260503230024 | 12 | 180 | 14.5 | 30.6 | 0.00 | 0.00 | 0.00 | 60 | 1011.1 |
| 20260503224528 | 13 | 198 | 11.3 | 29.0 | 0.00 | 0.00 | 0.00 | 57 | 1010.9 |
| 20260503223012 | 15 | 267 | 12.9 | 24.1 | 0.00 | 0.00 | 0.00 | 49 | 1010.7 |
| 20260503221519 | 15 | 219 | 12.9 | 29.0 | 0.00 | 0.00 | 0.00 | 47 | 1010.6 |
| 20260503220030 | 15 | 184 | 17.7 | 29.0 | 0.00 | 0.00 | 0.00 | 46 | 1010.4 |
| 20260503214536 | 15 | 158 | 14.5 | 30.6 | 0.00 | 0.00 | 0.00 | 46 | 1010.4 |
| 20260503213033 | 15 | 270 | 17.7 | 35.4 | 0.00 | 0.00 | 0.00 | 46 | 1010.4 |
| 20260503211528 | 15 | 235 | 11.3 | 37.0 | 0.00 | 0.00 | 0.00 | 46 | 1010.5 |
| 20260503210020 | 16 | 176 | 12.9 | 32.2 | 0.00 | 0.00 | 0.00 | 43 | 1010.6 |
| 20260503204528 | 16 | 212 | 16.1 | 33.8 | 0.00 | 0.00 | 0.00 | 43 | 1010.6 |
| 20260503203003 | 16 | 171 | 9.7 | 35.4 | 0.00 | 0.00 | 0.00 | 45 | 1010.8 |
| 20260503201504 | 16 | 243 | 8.0 | 32.2 | 0.00 | 0.00 | 0.00 | 45 | 1010.9 |
| 20260503200004 | 16 | 231 | 16.1 | 37.0 | 0.00 | 0.00 | 0.00 | 42 | 1010.9 |
| 20260503194504 | 16 | 269 | 17.7 | 33.8 | 0.00 | 0.00 | 0.00 | 43 | 1011.2 |
| 20260503193007 | 16 | 254 | 16.1 | 32.2 | 0.00 | 0.00 | 0.00 | 42 | 1011.4 |
| 20260503191503 | 16 | 203 | 14.5 | 29.0 | 0.00 | 0.00 | 0.00 | 45 | 1011.7 |
| 20260503190006 | 16 | 203 | 12.9 | 35.4 | 0.00 | 0.00 | 0.00 | 43 | 1011.7 |
| 20260503184507 | 16 | 236 | 11.3 | 29.0 | 0.00 | 0.00 | 0.00 | 44 | 1011.8 |